Index of /20260427/WXO-DD/model_rdps/10km/06/010
Name Last modified Size Description
Parent Directory -
20260427T06Z_MSC_RDPS_AbsoluteVorticity_IsbL-0250_RLatLon0.09_PT010H.grib2 2026-04-27 08:43 605K
20260427T06Z_MSC_RDPS_AbsoluteVorticity_IsbL-0500_RLatLon0.09_PT010H.grib2 2026-04-27 08:43 555K
20260427T06Z_MSC_RDPS_AbsoluteVorticity_IsbL-0700_RLatLon0.09_PT010H.grib2 2026-04-27 08:43 617K
20260427T06Z_MSC_RDPS_AbsoluteVorticity_IsbL-0850_RLatLon0.09_PT010H.grib2 2026-04-27 08:43 780K
20260427T06Z_MSC_RDPS_AirTemp_AGL-120m_RLatLon0.09_PT010H.grib2 2026-04-27 08:43 385K
20260427T06Z_MSC_RDPS_AirTemp_AGL-2m_RLatLon0.09_PT010H.grib2 2026-04-27 08:43 641K
20260427T06Z_MSC_RDPS_AirTemp_AGL-40m_RLatLon0.09_PT010H.grib2 2026-04-27 08:43 410K
20260427T06Z_MSC_RDPS_AirTemp_AGL-80m_RLatLon0.09_PT010H.grib2 2026-04-27 08:43 390K
20260427T06Z_MSC_RDPS_AirTemp_IsbL-0001_RLatLon0.09_PT010H.grib2 2026-04-27 08:43 276K
20260427T06Z_MSC_RDPS_AirTemp_IsbL-0005_RLatLon0.09_PT010H.grib2 2026-04-27 08:43 287K
20260427T06Z_MSC_RDPS_AirTemp_IsbL-0010_RLatLon0.09_PT010H.grib2 2026-04-27 08:43 297K
20260427T06Z_MSC_RDPS_AirTemp_IsbL-0020_RLatLon0.09_PT010H.grib2 2026-04-27 08:43 312K
20260427T06Z_MSC_RDPS_AirTemp_IsbL-0030_RLatLon0.09_PT010H.grib2 2026-04-27 08:43 326K
20260427T06Z_MSC_RDPS_AirTemp_IsbL-0050_RLatLon0.09_PT010H.grib2 2026-04-27 08:43 310K
20260427T06Z_MSC_RDPS_AirTemp_IsbL-0100_RLatLon0.09_PT010H.grib2 2026-04-27 08:43 415K
20260427T06Z_MSC_RDPS_AirTemp_IsbL-0150_RLatLon0.09_PT010H.grib2 2026-04-27 08:43 411K
20260427T06Z_MSC_RDPS_AirTemp_IsbL-0175_RLatLon0.09_PT010H.grib2 2026-04-27 08:43 404K
20260427T06Z_MSC_RDPS_AirTemp_IsbL-0200_RLatLon0.09_PT010H.grib2 2026-04-27 08:43 411K
20260427T06Z_MSC_RDPS_AirTemp_IsbL-0225_RLatLon0.09_PT010H.grib2 2026-04-27 08:43 413K
20260427T06Z_MSC_RDPS_AirTemp_IsbL-0250_RLatLon0.09_PT010H.grib2 2026-04-27 08:43 419K
20260427T06Z_MSC_RDPS_AirTemp_IsbL-0275_RLatLon0.09_PT010H.grib2 2026-04-27 08:43 401K
20260427T06Z_MSC_RDPS_AirTemp_IsbL-0300_RLatLon0.09_PT010H.grib2 2026-04-27 08:43 406K
20260427T06Z_MSC_RDPS_AirTemp_IsbL-0350_RLatLon0.09_PT010H.grib2 2026-04-27 08:43 417K
20260427T06Z_MSC_RDPS_AirTemp_IsbL-0400_RLatLon0.09_PT010H.grib2 2026-04-27 08:43 419K
20260427T06Z_MSC_RDPS_AirTemp_IsbL-0450_RLatLon0.09_PT010H.grib2 2026-04-27 08:43 427K
20260427T06Z_MSC_RDPS_AirTemp_IsbL-0500_RLatLon0.09_PT010H.grib2 2026-04-27 08:43 438K
20260427T06Z_MSC_RDPS_AirTemp_IsbL-0550_RLatLon0.09_PT010H.grib2 2026-04-27 08:43 421K
20260427T06Z_MSC_RDPS_AirTemp_IsbL-0600_RLatLon0.09_PT010H.grib2 2026-04-27 08:43 438K
20260427T06Z_MSC_RDPS_AirTemp_IsbL-0650_RLatLon0.09_PT010H.grib2 2026-04-27 08:43 453K
20260427T06Z_MSC_RDPS_AirTemp_IsbL-0700_RLatLon0.09_PT010H.grib2 2026-04-27 08:43 481K
20260427T06Z_MSC_RDPS_AirTemp_IsbL-0750_RLatLon0.09_PT010H.grib2 2026-04-27 08:43 412K
20260427T06Z_MSC_RDPS_AirTemp_IsbL-0800_RLatLon0.09_PT010H.grib2 2026-04-27 08:43 462K
20260427T06Z_MSC_RDPS_AirTemp_IsbL-0850_RLatLon0.09_PT010H.grib2 2026-04-27 08:43 509K
20260427T06Z_MSC_RDPS_AirTemp_IsbL-0875_RLatLon0.09_PT010H.grib2 2026-04-27 08:43 524K
20260427T06Z_MSC_RDPS_AirTemp_IsbL-0900_RLatLon0.09_PT010H.grib2 2026-04-27 08:43 531K
20260427T06Z_MSC_RDPS_AirTemp_IsbL-0925_RLatLon0.09_PT010H.grib2 2026-04-27 08:43 533K
20260427T06Z_MSC_RDPS_AirTemp_IsbL-0950_RLatLon0.09_PT010H.grib2 2026-04-27 08:43 536K
20260427T06Z_MSC_RDPS_AirTemp_IsbL-0970_RLatLon0.09_PT010H.grib2 2026-04-27 08:43 532K
20260427T06Z_MSC_RDPS_AirTemp_IsbL-0985_RLatLon0.09_PT010H.grib2 2026-04-27 08:43 526K
20260427T06Z_MSC_RDPS_AirTemp_IsbL-1000_RLatLon0.09_PT010H.grib2 2026-04-27 08:43 508K
20260427T06Z_MSC_RDPS_AirTemp_IsbL-1015_RLatLon0.09_PT010H.grib2 2026-04-27 08:43 503K
20260427T06Z_MSC_RDPS_Albedo_Sfc_RLatLon0.09_PT010H.grib2 2026-04-27 08:43 164K
20260427T06Z_MSC_RDPS_CAPE_Sfc_RLatLon0.09_PT010H.grib2 2026-04-27 08:43 1.8M
20260427T06Z_MSC_RDPS_CIN_Sfc_RLatLon0.09_PT010H.grib2 2026-04-27 08:43 1.1M
20260427T06Z_MSC_RDPS_CloudWater_EAtm_RLatLon0.09_PT010H.grib2 2026-04-27 08:43 215K
20260427T06Z_MSC_RDPS_ConvectivePrecip-Accum_Sfc_RLatLon0.09_PT010H.grib2 2026-04-27 08:43 574K
20260427T06Z_MSC_RDPS_DewPointDepression_AGL-2m_RLatLon0.09_PT010H.grib2 2026-04-27 08:43 421K
20260427T06Z_MSC_RDPS_DewPointDepression_IsbL-0001_RLatLon0.09_PT010H.grib2 2026-04-27 08:43 193
20260427T06Z_MSC_RDPS_DewPointDepression_IsbL-0005_RLatLon0.09_PT010H.grib2 2026-04-27 08:43 193
20260427T06Z_MSC_RDPS_DewPointDepression_IsbL-0010_RLatLon0.09_PT010H.grib2 2026-04-27 08:43 193
20260427T06Z_MSC_RDPS_DewPointDepression_IsbL-0020_RLatLon0.09_PT010H.grib2 2026-04-27 08:43 193
20260427T06Z_MSC_RDPS_DewPointDepression_IsbL-0030_RLatLon0.09_PT010H.grib2 2026-04-27 08:43 193
20260427T06Z_MSC_RDPS_DewPointDepression_IsbL-0050_RLatLon0.09_PT010H.grib2 2026-04-27 08:43 88K
20260427T06Z_MSC_RDPS_DewPointDepression_IsbL-0100_RLatLon0.09_PT010H.grib2 2026-04-27 08:43 123K
20260427T06Z_MSC_RDPS_DewPointDepression_IsbL-0150_RLatLon0.09_PT010H.grib2 2026-04-27 08:43 151K
20260427T06Z_MSC_RDPS_DewPointDepression_IsbL-0175_RLatLon0.09_PT010H.grib2 2026-04-27 08:43 180K
20260427T06Z_MSC_RDPS_DewPointDepression_IsbL-0200_RLatLon0.09_PT010H.grib2 2026-04-27 08:43 220K
20260427T06Z_MSC_RDPS_DewPointDepression_IsbL-0225_RLatLon0.09_PT010H.grib2 2026-04-27 08:43 258K
20260427T06Z_MSC_RDPS_DewPointDepression_IsbL-0250_RLatLon0.09_PT010H.grib2 2026-04-27 08:43 297K
20260427T06Z_MSC_RDPS_DewPointDepression_IsbL-0275_RLatLon0.09_PT010H.grib2 2026-04-27 08:43 307K
20260427T06Z_MSC_RDPS_DewPointDepression_IsbL-0300_RLatLon0.09_PT010H.grib2 2026-04-27 08:43 324K
20260427T06Z_MSC_RDPS_DewPointDepression_IsbL-0350_RLatLon0.09_PT010H.grib2 2026-04-27 08:43 329K
20260427T06Z_MSC_RDPS_DewPointDepression_IsbL-0400_RLatLon0.09_PT010H.grib2 2026-04-27 08:43 341K
20260427T06Z_MSC_RDPS_DewPointDepression_IsbL-0450_RLatLon0.09_PT010H.grib2 2026-04-27 08:43 350K
20260427T06Z_MSC_RDPS_DewPointDepression_IsbL-0500_RLatLon0.09_PT010H.grib2 2026-04-27 08:43 352K
20260427T06Z_MSC_RDPS_DewPointDepression_IsbL-0550_RLatLon0.09_PT010H.grib2 2026-04-27 08:43 362K
20260427T06Z_MSC_RDPS_DewPointDepression_IsbL-0600_RLatLon0.09_PT010H.grib2 2026-04-27 08:43 374K
20260427T06Z_MSC_RDPS_DewPointDepression_IsbL-0650_RLatLon0.09_PT010H.grib2 2026-04-27 08:43 379K
20260427T06Z_MSC_RDPS_DewPointDepression_IsbL-0700_RLatLon0.09_PT010H.grib2 2026-04-27 08:43 393K
20260427T06Z_MSC_RDPS_DewPointDepression_IsbL-0750_RLatLon0.09_PT010H.grib2 2026-04-27 08:43 421K
20260427T06Z_MSC_RDPS_DewPointDepression_IsbL-0800_RLatLon0.09_PT010H.grib2 2026-04-27 08:43 455K
20260427T06Z_MSC_RDPS_DewPointDepression_IsbL-0850_RLatLon0.09_PT010H.grib2 2026-04-27 08:43 480K
20260427T06Z_MSC_RDPS_DewPointDepression_IsbL-0875_RLatLon0.09_PT010H.grib2 2026-04-27 08:43 480K
20260427T06Z_MSC_RDPS_DewPointDepression_IsbL-0900_RLatLon0.09_PT010H.grib2 2026-04-27 08:43 471K
20260427T06Z_MSC_RDPS_DewPointDepression_IsbL-0925_RLatLon0.09_PT010H.grib2 2026-04-27 08:43 462K
20260427T06Z_MSC_RDPS_DewPointDepression_IsbL-0950_RLatLon0.09_PT010H.grib2 2026-04-27 08:43 456K
20260427T06Z_MSC_RDPS_DewPointDepression_IsbL-0970_RLatLon0.09_PT010H.grib2 2026-04-27 08:43 449K
20260427T06Z_MSC_RDPS_DewPointDepression_IsbL-0985_RLatLon0.09_PT010H.grib2 2026-04-27 08:43 444K
20260427T06Z_MSC_RDPS_DewPointDepression_IsbL-1000_RLatLon0.09_PT010H.grib2 2026-04-27 08:43 439K
20260427T06Z_MSC_RDPS_DewPointDepression_IsbL-1015_RLatLon0.09_PT010H.grib2 2026-04-27 08:43 433K
20260427T06Z_MSC_RDPS_DewPoint_AGL-2m_RLatLon0.09_PT010H.grib2 2026-04-27 08:43 408K
20260427T06Z_MSC_RDPS_DownwardLongwaveRadiationFlux-Accum_Sfc_RLatLon0.09_PT010H.grib2 2026-04-27 08:43 457K
20260427T06Z_MSC_RDPS_DownwardShortwaveRadiationFlux-Accum_NTAtm_RLatLon0.09_PT010H.grib2 2026-04-27 08:43 95K
20260427T06Z_MSC_RDPS_DownwardShortwaveRadiationFlux-Accum_Sfc_RLatLon0.09_PT010H.grib2 2026-04-27 08:43 411K
20260427T06Z_MSC_RDPS_FreezingRain-Accum1h_Sfc_RLatLon0.09_PT010H.grib2 2026-04-27 08:43 25K
20260427T06Z_MSC_RDPS_FreezingRain-Accum_Sfc_RLatLon0.09_PT010H.grib2 2026-04-27 08:43 82K
20260427T06Z_MSC_RDPS_GeopotentialHeight_IsbL-0001_RLatLon0.09_PT010H.grib2 2026-04-27 08:43 274K
20260427T06Z_MSC_RDPS_GeopotentialHeight_IsbL-0005_RLatLon0.09_PT010H.grib2 2026-04-27 08:43 337K
20260427T06Z_MSC_RDPS_GeopotentialHeight_IsbL-0010_RLatLon0.09_PT010H.grib2 2026-04-27 08:43 337K
20260427T06Z_MSC_RDPS_GeopotentialHeight_IsbL-0020_RLatLon0.09_PT010H.grib2 2026-04-27 08:43 303K
20260427T06Z_MSC_RDPS_GeopotentialHeight_IsbL-0030_RLatLon0.09_PT010H.grib2 2026-04-27 08:43 304K
20260427T06Z_MSC_RDPS_GeopotentialHeight_IsbL-0050_RLatLon0.09_PT010H.grib2 2026-04-27 08:43 305K
20260427T06Z_MSC_RDPS_GeopotentialHeight_IsbL-0100_RLatLon0.09_PT010H.grib2 2026-04-27 08:43 285K
20260427T06Z_MSC_RDPS_GeopotentialHeight_IsbL-0150_RLatLon0.09_PT010H.grib2 2026-04-27 08:43 225K
20260427T06Z_MSC_RDPS_GeopotentialHeight_IsbL-0175_RLatLon0.09_PT010H.grib2 2026-04-27 08:43 228K
20260427T06Z_MSC_RDPS_GeopotentialHeight_IsbL-0200_RLatLon0.09_PT010H.grib2 2026-04-27 08:43 231K
20260427T06Z_MSC_RDPS_GeopotentialHeight_IsbL-0225_RLatLon0.09_PT010H.grib2 2026-04-27 08:43 264K
20260427T06Z_MSC_RDPS_GeopotentialHeight_IsbL-0250_RLatLon0.09_PT010H.grib2 2026-04-27 08:43 266K
20260427T06Z_MSC_RDPS_GeopotentialHeight_IsbL-0275_RLatLon0.09_PT010H.grib2 2026-04-27 08:43 234K
20260427T06Z_MSC_RDPS_GeopotentialHeight_IsbL-0300_RLatLon0.09_PT010H.grib2 2026-04-27 08:43 234K
20260427T06Z_MSC_RDPS_GeopotentialHeight_IsbL-0350_RLatLon0.09_PT010H.grib2 2026-04-27 08:43 230K
20260427T06Z_MSC_RDPS_GeopotentialHeight_IsbL-0400_RLatLon0.09_PT010H.grib2 2026-04-27 08:43 226K
20260427T06Z_MSC_RDPS_GeopotentialHeight_IsbL-0450_RLatLon0.09_PT010H.grib2 2026-04-27 08:43 295K
20260427T06Z_MSC_RDPS_GeopotentialHeight_IsbL-0500_RLatLon0.09_PT010H.grib2 2026-04-27 08:43 289K
20260427T06Z_MSC_RDPS_GeopotentialHeight_IsbL-0550_RLatLon0.09_PT010H.grib2 2026-04-27 08:43 285K
20260427T06Z_MSC_RDPS_GeopotentialHeight_IsbL-0600_RLatLon0.09_PT010H.grib2 2026-04-27 08:43 283K
20260427T06Z_MSC_RDPS_GeopotentialHeight_IsbL-0650_RLatLon0.09_PT010H.grib2 2026-04-27 08:43 281K
20260427T06Z_MSC_RDPS_GeopotentialHeight_IsbL-0700_RLatLon0.09_PT010H.grib2 2026-04-27 08:43 280K
20260427T06Z_MSC_RDPS_GeopotentialHeight_IsbL-0750_RLatLon0.09_PT010H.grib2 2026-04-27 08:43 255K
20260427T06Z_MSC_RDPS_GeopotentialHeight_IsbL-0800_RLatLon0.09_PT010H.grib2 2026-04-27 08:43 261K
20260427T06Z_MSC_RDPS_GeopotentialHeight_IsbL-0850_RLatLon0.09_PT010H.grib2 2026-04-27 08:43 270K
20260427T06Z_MSC_RDPS_GeopotentialHeight_IsbL-0875_RLatLon0.09_PT010H.grib2 2026-04-27 08:43 273K
20260427T06Z_MSC_RDPS_GeopotentialHeight_IsbL-0900_RLatLon0.09_PT010H.grib2 2026-04-27 08:43 277K
20260427T06Z_MSC_RDPS_GeopotentialHeight_IsbL-0925_RLatLon0.09_PT010H.grib2 2026-04-27 08:43 280K
20260427T06Z_MSC_RDPS_GeopotentialHeight_IsbL-0950_RLatLon0.09_PT010H.grib2 2026-04-27 08:43 283K
20260427T06Z_MSC_RDPS_GeopotentialHeight_IsbL-0970_RLatLon0.09_PT010H.grib2 2026-04-27 08:43 289K
20260427T06Z_MSC_RDPS_GeopotentialHeight_IsbL-0985_RLatLon0.09_PT010H.grib2 2026-04-27 08:43 297K
20260427T06Z_MSC_RDPS_GeopotentialHeight_IsbL-1000_RLatLon0.09_PT010H.grib2 2026-04-27 08:43 307K
20260427T06Z_MSC_RDPS_GeopotentialHeight_IsbL-1015_RLatLon0.09_PT010H.grib2 2026-04-27 08:43 320K
20260427T06Z_MSC_RDPS_Humidex_Sfc_RLatLon0.09_PT010H.grib2 2026-04-27 08:43 2.4M
20260427T06Z_MSC_RDPS_IcePellets-Accum1h_Sfc_RLatLon0.09_PT010H.grib2 2026-04-27 08:43 5.3K
20260427T06Z_MSC_RDPS_IcePellets-Accum_Sfc_RLatLon0.09_PT010H.grib2 2026-04-27 08:43 11K
20260427T06Z_MSC_RDPS_KIndex_Sfc_RLatLon0.09_PT010H.grib2 2026-04-27 08:43 2.4M
20260427T06Z_MSC_RDPS_LatentHeatNetFlux_Sfc_RLatLon0.09_PT010H.grib2 2026-04-27 08:43 393K
20260427T06Z_MSC_RDPS_LiftedIndex-MU-VT_IsbL-0500_RLatLon0.09_PT010H.grib2 2026-04-27 08:43 2.4M
20260427T06Z_MSC_RDPS_NetLongwaveRadiationFlux-Accum_Sfc_RLatLon0.09_PT010H.grib2 2026-04-27 08:43 595K
20260427T06Z_MSC_RDPS_NetShortwaveRadiationFlux-Accum_Sfc_RLatLon0.09_PT010H.grib2 2026-04-27 08:43 405K
20260427T06Z_MSC_RDPS_PlanetaryBoundaryLayerHeight_Sfc_RLatLon0.09_PT010H.grib2 2026-04-27 08:43 1.2M
20260427T06Z_MSC_RDPS_Precip-Accum1h_Sfc_RLatLon0.09_PT010H.grib2 2026-04-27 08:43 1.2M
20260427T06Z_MSC_RDPS_Precip-Accum_Sfc_RLatLon0.09_PT010H.grib2 2026-04-27 08:43 1.5M
20260427T06Z_MSC_RDPS_PrecipRate_Sfc_RLatLon0.09_PT010H.grib2 2026-04-27 08:43 183K
20260427T06Z_MSC_RDPS_PrecipType-Instant_Sfc_RLatLon0.09_PT010H.grib2 2026-04-27 08:43 564K
20260427T06Z_MSC_RDPS_Pressure-Trend3h_Sfc_RLatLon0.09_PT010H.grib2 2026-04-27 08:43 1.2M
20260427T06Z_MSC_RDPS_Pressure_MSL_RLatLon0.09_PT010H.grib2 2026-04-27 08:43 331K
20260427T06Z_MSC_RDPS_Pressure_PVU-1.5_RLatLon0.09_PT010H.grib2 2026-04-27 08:43 2.5M
20260427T06Z_MSC_RDPS_Pressure_PVU-1_RLatLon0.09_PT010H.grib2 2026-04-27 08:43 2.4M
20260427T06Z_MSC_RDPS_Pressure_PVU-2_RLatLon0.09_PT010H.grib2 2026-04-27 08:43 2.4M
20260427T06Z_MSC_RDPS_Pressure_Sfc_RLatLon0.09_PT010H.grib2 2026-04-27 08:43 501K
20260427T06Z_MSC_RDPS_RadiativeTemp_Sfc_RLatLon0.09_PT010H.grib2 2026-04-27 08:43 323K
20260427T06Z_MSC_RDPS_Rain-Accum1h_Sfc_RLatLon0.09_PT010H.grib2 2026-04-27 08:43 583K
20260427T06Z_MSC_RDPS_Rain-Accum_Sfc_RLatLon0.09_PT010H.grib2 2026-04-27 08:43 1.1M
20260427T06Z_MSC_RDPS_RelativeHumidity_AGL-2m_RLatLon0.09_PT010H.grib2 2026-04-27 08:43 1.0M
20260427T06Z_MSC_RDPS_RelativeHumidity_IsbL-0010_RLatLon0.09_PT010H.grib2 2026-04-27 08:43 657K
20260427T06Z_MSC_RDPS_RelativeHumidity_IsbL-0020_RLatLon0.09_PT010H.grib2 2026-04-27 08:43 655K
20260427T06Z_MSC_RDPS_RelativeHumidity_IsbL-0030_RLatLon0.09_PT010H.grib2 2026-04-27 08:43 534K
20260427T06Z_MSC_RDPS_RelativeHumidity_IsbL-0050_RLatLon0.09_PT010H.grib2 2026-04-27 08:43 320K
20260427T06Z_MSC_RDPS_RelativeHumidity_IsbL-0100_RLatLon0.09_PT010H.grib2 2026-04-27 08:43 371K
20260427T06Z_MSC_RDPS_RelativeHumidity_IsbL-0150_RLatLon0.09_PT010H.grib2 2026-04-27 08:43 395K
20260427T06Z_MSC_RDPS_RelativeHumidity_IsbL-0175_RLatLon0.09_PT010H.grib2 2026-04-27 08:43 466K
20260427T06Z_MSC_RDPS_RelativeHumidity_IsbL-0200_RLatLon0.09_PT010H.grib2 2026-04-27 08:43 544K
20260427T06Z_MSC_RDPS_RelativeHumidity_IsbL-0225_RLatLon0.09_PT010H.grib2 2026-04-27 08:43 608K
20260427T06Z_MSC_RDPS_RelativeHumidity_IsbL-0250_RLatLon0.09_PT010H.grib2 2026-04-27 08:43 676K
20260427T06Z_MSC_RDPS_RelativeHumidity_IsbL-0275_RLatLon0.09_PT010H.grib2 2026-04-27 08:43 707K
20260427T06Z_MSC_RDPS_RelativeHumidity_IsbL-0300_RLatLon0.09_PT010H.grib2 2026-04-27 08:43 754K
20260427T06Z_MSC_RDPS_RelativeHumidity_IsbL-0350_RLatLon0.09_PT010H.grib2 2026-04-27 08:43 772K
20260427T06Z_MSC_RDPS_RelativeHumidity_IsbL-0400_RLatLon0.09_PT010H.grib2 2026-04-27 08:43 784K
20260427T06Z_MSC_RDPS_RelativeHumidity_IsbL-0450_RLatLon0.09_PT010H.grib2 2026-04-27 08:43 797K
20260427T06Z_MSC_RDPS_RelativeHumidity_IsbL-0500_RLatLon0.09_PT010H.grib2 2026-04-27 08:43 811K
20260427T06Z_MSC_RDPS_RelativeHumidity_IsbL-0550_RLatLon0.09_PT010H.grib2 2026-04-27 08:43 818K
20260427T06Z_MSC_RDPS_RelativeHumidity_IsbL-0600_RLatLon0.09_PT010H.grib2 2026-04-27 08:43 836K
20260427T06Z_MSC_RDPS_RelativeHumidity_IsbL-0650_RLatLon0.09_PT010H.grib2 2026-04-27 08:43 860K
20260427T06Z_MSC_RDPS_RelativeHumidity_IsbL-0700_RLatLon0.09_PT010H.grib2 2026-04-27 08:43 892K
20260427T06Z_MSC_RDPS_RelativeHumidity_IsbL-0750_RLatLon0.09_PT010H.grib2 2026-04-27 08:43 943K
20260427T06Z_MSC_RDPS_RelativeHumidity_IsbL-0800_RLatLon0.09_PT010H.grib2 2026-04-27 08:43 1.0M
20260427T06Z_MSC_RDPS_RelativeHumidity_IsbL-0850_RLatLon0.09_PT010H.grib2 2026-04-27 08:43 1.1M
20260427T06Z_MSC_RDPS_RelativeHumidity_IsbL-0875_RLatLon0.09_PT010H.grib2 2026-04-27 08:43 1.1M
20260427T06Z_MSC_RDPS_RelativeHumidity_IsbL-0900_RLatLon0.09_PT010H.grib2 2026-04-27 08:43 1.1M
20260427T06Z_MSC_RDPS_RelativeHumidity_IsbL-0925_RLatLon0.09_PT010H.grib2 2026-04-27 08:43 1.1M
20260427T06Z_MSC_RDPS_RelativeHumidity_IsbL-0950_RLatLon0.09_PT010H.grib2 2026-04-27 08:43 1.1M
20260427T06Z_MSC_RDPS_RelativeHumidity_IsbL-0970_RLatLon0.09_PT010H.grib2 2026-04-27 08:43 1.1M
20260427T06Z_MSC_RDPS_RelativeHumidity_IsbL-0985_RLatLon0.09_PT010H.grib2 2026-04-27 08:43 1.1M
20260427T06Z_MSC_RDPS_RelativeHumidity_IsbL-1000_RLatLon0.09_PT010H.grib2 2026-04-27 08:43 1.0M
20260427T06Z_MSC_RDPS_RelativeHumidity_IsbL-1015_RLatLon0.09_PT010H.grib2 2026-04-27 08:43 1.0M
20260427T06Z_MSC_RDPS_Runoff-Accum_Sfc_RLatLon0.09_PT010H.grib2 2026-04-27 08:43 28K
20260427T06Z_MSC_RDPS_SWEATIndex_Sfc_RLatLon0.09_PT010H.grib2 2026-04-27 08:43 2.4M
20260427T06Z_MSC_RDPS_SeeingIndex_EAtm_RLatLon0.09_PT010H.grib2 2026-04-27 08:43 1.0M
20260427T06Z_MSC_RDPS_SensibleHeatNetFlux_Sfc_RLatLon0.09_PT010H.grib2 2026-04-27 08:43 370K
20260427T06Z_MSC_RDPS_ShowalterIndex_IsbL-0500_RLatLon0.09_PT010H.grib2 2026-04-27 08:43 2.6M
20260427T06Z_MSC_RDPS_SkyTransparencyIndex_EAtm_RLatLon0.09_PT010H.grib2 2026-04-27 08:43 734K
20260427T06Z_MSC_RDPS_Snow-Accum1h_Sfc_RLatLon0.09_PT010H.grib2 2026-04-27 08:43 374K
20260427T06Z_MSC_RDPS_Snow-Accum_Sfc_RLatLon0.09_PT010H.grib2 2026-04-27 08:43 656K
20260427T06Z_MSC_RDPS_SnowDensity_Sfc_RLatLon0.09_PT010H.grib2 2026-04-27 08:43 180K
20260427T06Z_MSC_RDPS_SnowDepth_Sfc_RLatLon0.09_PT010H.grib2 2026-04-27 08:43 720K
20260427T06Z_MSC_RDPS_SoilTemp_DBS-0to10cm_RLatLon0.09_PT010H.grib2 2026-04-27 08:43 205K
20260427T06Z_MSC_RDPS_SoilTemp_Sfc_RLatLon0.09_PT010H.grib2 2026-04-27 08:43 290K
20260427T06Z_MSC_RDPS_SoilVolumetricIceContent_Sfc_RLatLon0.09_PT010H.grib2 2026-04-27 08:43 169K
20260427T06Z_MSC_RDPS_SoilVolumetricWaterContent_DBS-0to10cm_RLatLon0.09_PT010H.grib2 2026-04-27 08:43 258K
20260427T06Z_MSC_RDPS_SoilVolumetricWaterContent_DBS-0to1cm_RLatLon0.09_PT010H.grib2 2026-04-27 08:43 333K
20260427T06Z_MSC_RDPS_SpecificHumidity_AGL-120m_RLatLon0.09_PT010H.grib2 2026-04-27 08:43 498K
20260427T06Z_MSC_RDPS_SpecificHumidity_AGL-2m_RLatLon0.09_PT010H.grib2 2026-04-27 08:43 666K
20260427T06Z_MSC_RDPS_SpecificHumidity_AGL-40m_RLatLon0.09_PT010H.grib2 2026-04-27 08:43 501K
20260427T06Z_MSC_RDPS_SpecificHumidity_AGL-80m_RLatLon0.09_PT010H.grib2 2026-04-27 08:43 499K
20260427T06Z_MSC_RDPS_SpecificHumidity_IsbL-0001_RLatLon0.09_PT010H.grib2 2026-04-27 08:43 344K
20260427T06Z_MSC_RDPS_SpecificHumidity_IsbL-0005_RLatLon0.09_PT010H.grib2 2026-04-27 08:43 358K
20260427T06Z_MSC_RDPS_SpecificHumidity_IsbL-0010_RLatLon0.09_PT010H.grib2 2026-04-27 08:43 396K
20260427T06Z_MSC_RDPS_SpecificHumidity_IsbL-0020_RLatLon0.09_PT010H.grib2 2026-04-27 08:43 388K
20260427T06Z_MSC_RDPS_SpecificHumidity_IsbL-0030_RLatLon0.09_PT010H.grib2 2026-04-27 08:43 477K
20260427T06Z_MSC_RDPS_SpecificHumidity_IsbL-0050_RLatLon0.09_PT010H.grib2 2026-04-27 08:43 465K
20260427T06Z_MSC_RDPS_SpecificHumidity_IsbL-0100_RLatLon0.09_PT010H.grib2 2026-04-27 08:43 412K
20260427T06Z_MSC_RDPS_SpecificHumidity_IsbL-0150_RLatLon0.09_PT010H.grib2 2026-04-27 08:43 438K
20260427T06Z_MSC_RDPS_SpecificHumidity_IsbL-0175_RLatLon0.09_PT010H.grib2 2026-04-27 08:43 536K
20260427T06Z_MSC_RDPS_SpecificHumidity_IsbL-0200_RLatLon0.09_PT010H.grib2 2026-04-27 08:43 446K
20260427T06Z_MSC_RDPS_SpecificHumidity_IsbL-0225_RLatLon0.09_PT010H.grib2 2026-04-27 08:43 548K
20260427T06Z_MSC_RDPS_SpecificHumidity_IsbL-0250_RLatLon0.09_PT010H.grib2 2026-04-27 08:43 546K
20260427T06Z_MSC_RDPS_SpecificHumidity_IsbL-0275_RLatLon0.09_PT010H.grib2 2026-04-27 08:43 465K
20260427T06Z_MSC_RDPS_SpecificHumidity_IsbL-0300_RLatLon0.09_PT010H.grib2 2026-04-27 08:43 536K
20260427T06Z_MSC_RDPS_SpecificHumidity_IsbL-0350_RLatLon0.09_PT010H.grib2 2026-04-27 08:43 527K
20260427T06Z_MSC_RDPS_SpecificHumidity_IsbL-0400_RLatLon0.09_PT010H.grib2 2026-04-27 08:43 506K
20260427T06Z_MSC_RDPS_SpecificHumidity_IsbL-0450_RLatLon0.09_PT010H.grib2 2026-04-27 08:43 564K
20260427T06Z_MSC_RDPS_SpecificHumidity_IsbL-0500_RLatLon0.09_PT010H.grib2 2026-04-27 08:43 498K
20260427T06Z_MSC_RDPS_SpecificHumidity_IsbL-0550_RLatLon0.09_PT010H.grib2 2026-04-27 08:43 552K
20260427T06Z_MSC_RDPS_SpecificHumidity_IsbL-0600_RLatLon0.09_PT010H.grib2 2026-04-27 08:43 617K
20260427T06Z_MSC_RDPS_SpecificHumidity_IsbL-0650_RLatLon0.09_PT010H.grib2 2026-04-27 08:43 660K
20260427T06Z_MSC_RDPS_SpecificHumidity_IsbL-0700_RLatLon0.09_PT010H.grib2 2026-04-27 08:43 586K
20260427T06Z_MSC_RDPS_SpecificHumidity_IsbL-0750_RLatLon0.09_PT010H.grib2 2026-04-27 08:43 649K
20260427T06Z_MSC_RDPS_SpecificHumidity_IsbL-0800_RLatLon0.09_PT010H.grib2 2026-04-27 08:43 726K
20260427T06Z_MSC_RDPS_SpecificHumidity_IsbL-0850_RLatLon0.09_PT010H.grib2 2026-04-27 08:43 807K
20260427T06Z_MSC_RDPS_SpecificHumidity_IsbL-0875_RLatLon0.09_PT010H.grib2 2026-04-27 08:43 830K
20260427T06Z_MSC_RDPS_SpecificHumidity_IsbL-0900_RLatLon0.09_PT010H.grib2 2026-04-27 08:43 843K
20260427T06Z_MSC_RDPS_SpecificHumidity_IsbL-0925_RLatLon0.09_PT010H.grib2 2026-04-27 08:43 846K
20260427T06Z_MSC_RDPS_SpecificHumidity_IsbL-0950_RLatLon0.09_PT010H.grib2 2026-04-27 08:43 704K
20260427T06Z_MSC_RDPS_SpecificHumidity_IsbL-0970_RLatLon0.09_PT010H.grib2 2026-04-27 08:43 697K
20260427T06Z_MSC_RDPS_SpecificHumidity_IsbL-0985_RLatLon0.09_PT010H.grib2 2026-04-27 08:43 692K
20260427T06Z_MSC_RDPS_SpecificHumidity_IsbL-1000_RLatLon0.09_PT010H.grib2 2026-04-27 08:43 687K
20260427T06Z_MSC_RDPS_SpecificHumidity_IsbL-1015_RLatLon0.09_PT010H.grib2 2026-04-27 08:43 678K
20260427T06Z_MSC_RDPS_SpecificHumidity_Sfc_RLatLon0.09_PT010H.grib2 2026-04-27 08:43 332K
20260427T06Z_MSC_RDPS_StormRelativeHelicity_EtaL-10000_RLatLon0.09_PT010H.grib2 2026-04-27 08:43 1.1M
20260427T06Z_MSC_RDPS_StormSeverityIndex_EtaL-10000_RLatLon0.09_PT010H.grib2 2026-04-27 08:43 1.2M
20260427T06Z_MSC_RDPS_Thickness_IsbL-0850to0700_RLatLon0.09_PT010H.grib2 2026-04-27 08:43 176K
20260427T06Z_MSC_RDPS_Thickness_IsbL-1000to0500_RLatLon0.09_PT010H.grib2 2026-04-27 08:43 201K
20260427T06Z_MSC_RDPS_Thickness_IsbL-1000to0850_RLatLon0.09_PT010H.grib2 2026-04-27 08:43 190K
20260427T06Z_MSC_RDPS_TotalCloudCover_Sfc_RLatLon0.09_PT010H.grib2 2026-04-27 08:43 661K
20260427T06Z_MSC_RDPS_TotalTotalsIndex_Sfc_RLatLon0.09_PT010H.grib2 2026-04-27 08:43 2.4M
20260427T06Z_MSC_RDPS_UVIndex-ClearSky_Sfc_RLatLon0.09_PT010H.grib2 2026-04-27 08:43 205K
20260427T06Z_MSC_RDPS_UVIndex_Sfc_RLatLon0.09_PT010H.grib2 2026-04-27 08:43 467K
20260427T06Z_MSC_RDPS_UpwardLongwaveRadiationFlux_NTAtm_RLatLon0.09_PT010H.grib2 2026-04-27 08:43 488K
20260427T06Z_MSC_RDPS_UpwardShortwaveRadiationFlux_NTAtm_RLatLon0.09_PT010H.grib2 2026-04-27 08:43 515K
20260427T06Z_MSC_RDPS_VerticalVelocity_IsbL-0250_RLatLon0.09_PT010H.grib2 2026-04-27 08:43 539K
20260427T06Z_MSC_RDPS_VerticalVelocity_IsbL-0500_RLatLon0.09_PT010H.grib2 2026-04-27 08:43 531K
20260427T06Z_MSC_RDPS_VerticalVelocity_IsbL-0700_RLatLon0.09_PT010H.grib2 2026-04-27 08:43 586K
20260427T06Z_MSC_RDPS_VerticalVelocity_IsbL-0850_RLatLon0.09_PT010H.grib2 2026-04-27 08:43 698K
20260427T06Z_MSC_RDPS_VerticalWindShear_EtaL-6500_RLatLon0.09_PT010H.grib2 2026-04-27 08:43 1.2M
20260427T06Z_MSC_RDPS_WindChill_Sfc_RLatLon0.09_PT010H.grib2 2026-04-27 08:43 1.2M
20260427T06Z_MSC_RDPS_WindDir_AGL-10m_RLatLon0.09_PT010H.grib2 2026-04-27 08:43 1.0M
20260427T06Z_MSC_RDPS_WindDir_AGL-120m_RLatLon0.09_PT010H.grib2 2026-04-27 08:43 627K
20260427T06Z_MSC_RDPS_WindDir_AGL-40m_RLatLon0.09_PT010H.grib2 2026-04-27 08:43 650K
20260427T06Z_MSC_RDPS_WindDir_AGL-80m_RLatLon0.09_PT010H.grib2 2026-04-27 08:43 637K
20260427T06Z_MSC_RDPS_WindDir_IsbL-0001_RLatLon0.09_PT010H.grib2 2026-04-27 08:43 277K
20260427T06Z_MSC_RDPS_WindDir_IsbL-0005_RLatLon0.09_PT010H.grib2 2026-04-27 08:43 343K
20260427T06Z_MSC_RDPS_WindDir_IsbL-0010_RLatLon0.09_PT010H.grib2 2026-04-27 08:43 374K
20260427T06Z_MSC_RDPS_WindDir_IsbL-0020_RLatLon0.09_PT010H.grib2 2026-04-27 08:43 396K
20260427T06Z_MSC_RDPS_WindDir_IsbL-0030_RLatLon0.09_PT010H.grib2 2026-04-27 08:43 397K
20260427T06Z_MSC_RDPS_WindDir_IsbL-0050_RLatLon0.09_PT010H.grib2 2026-04-27 08:43 416K
20260427T06Z_MSC_RDPS_WindDir_IsbL-0100_RLatLon0.09_PT010H.grib2 2026-04-27 08:43 405K
20260427T06Z_MSC_RDPS_WindDir_IsbL-0150_RLatLon0.09_PT010H.grib2 2026-04-27 08:43 400K
20260427T06Z_MSC_RDPS_WindDir_IsbL-0175_RLatLon0.09_PT010H.grib2 2026-04-27 08:43 425K
20260427T06Z_MSC_RDPS_WindDir_IsbL-0200_RLatLon0.09_PT010H.grib2 2026-04-27 08:43 446K
20260427T06Z_MSC_RDPS_WindDir_IsbL-0225_RLatLon0.09_PT010H.grib2 2026-04-27 08:43 452K
20260427T06Z_MSC_RDPS_WindDir_IsbL-0250_RLatLon0.09_PT010H.grib2 2026-04-27 08:43 452K
20260427T06Z_MSC_RDPS_WindDir_IsbL-0275_RLatLon0.09_PT010H.grib2 2026-04-27 08:43 469K
20260427T06Z_MSC_RDPS_WindDir_IsbL-0300_RLatLon0.09_PT010H.grib2 2026-04-27 08:43 469K
20260427T06Z_MSC_RDPS_WindDir_IsbL-0350_RLatLon0.09_PT010H.grib2 2026-04-27 08:43 494K
20260427T06Z_MSC_RDPS_WindDir_IsbL-0400_RLatLon0.09_PT010H.grib2 2026-04-27 08:43 505K
20260427T06Z_MSC_RDPS_WindDir_IsbL-0450_RLatLon0.09_PT010H.grib2 2026-04-27 08:43 521K
20260427T06Z_MSC_RDPS_WindDir_IsbL-0500_RLatLon0.09_PT010H.grib2 2026-04-27 08:43 534K
20260427T06Z_MSC_RDPS_WindDir_IsbL-0550_RLatLon0.09_PT010H.grib2 2026-04-27 08:43 546K
20260427T06Z_MSC_RDPS_WindDir_IsbL-0600_RLatLon0.09_PT010H.grib2 2026-04-27 08:43 577K
20260427T06Z_MSC_RDPS_WindDir_IsbL-0650_RLatLon0.09_PT010H.grib2 2026-04-27 08:43 625K
20260427T06Z_MSC_RDPS_WindDir_IsbL-0700_RLatLon0.09_PT010H.grib2 2026-04-27 08:43 671K
20260427T06Z_MSC_RDPS_WindDir_IsbL-0750_RLatLon0.09_PT010H.grib2 2026-04-27 08:43 720K
20260427T06Z_MSC_RDPS_WindDir_IsbL-0800_RLatLon0.09_PT010H.grib2 2026-04-27 08:43 794K
20260427T06Z_MSC_RDPS_WindDir_IsbL-0850_RLatLon0.09_PT010H.grib2 2026-04-27 08:43 866K
20260427T06Z_MSC_RDPS_WindDir_IsbL-0875_RLatLon0.09_PT010H.grib2 2026-04-27 08:43 891K
20260427T06Z_MSC_RDPS_WindDir_IsbL-0900_RLatLon0.09_PT010H.grib2 2026-04-27 08:43 910K
20260427T06Z_MSC_RDPS_WindDir_IsbL-0925_RLatLon0.09_PT010H.grib2 2026-04-27 08:43 920K
20260427T06Z_MSC_RDPS_WindDir_IsbL-0950_RLatLon0.09_PT010H.grib2 2026-04-27 08:43 920K
20260427T06Z_MSC_RDPS_WindDir_IsbL-0970_RLatLon0.09_PT010H.grib2 2026-04-27 08:43 928K
20260427T06Z_MSC_RDPS_WindDir_IsbL-0985_RLatLon0.09_PT010H.grib2 2026-04-27 08:43 941K
20260427T06Z_MSC_RDPS_WindDir_IsbL-1000_RLatLon0.09_PT010H.grib2 2026-04-27 08:43 956K
20260427T06Z_MSC_RDPS_WindDir_IsbL-1015_RLatLon0.09_PT010H.grib2 2026-04-27 08:43 1.0M
20260427T06Z_MSC_RDPS_WindGust-Max_AGL-10m_RLatLon0.09_PT010H.grib2 2026-04-27 08:43 950K
20260427T06Z_MSC_RDPS_WindGust-Min_AGL-10m_RLatLon0.09_PT010H.grib2 2026-04-27 08:43 1.0M
20260427T06Z_MSC_RDPS_WindGust_AGL-10m_RLatLon0.09_PT010H.grib2 2026-04-27 08:43 1.0M
20260427T06Z_MSC_RDPS_WindSpeed_AGL-10m_RLatLon0.09_PT010H.grib2 2026-04-27 08:43 851K
20260427T06Z_MSC_RDPS_WindSpeed_AGL-120m_RLatLon0.09_PT010H.grib2 2026-04-27 08:43 551K
20260427T06Z_MSC_RDPS_WindSpeed_AGL-40m_RLatLon0.09_PT010H.grib2 2026-04-27 08:43 545K
20260427T06Z_MSC_RDPS_WindSpeed_AGL-80m_RLatLon0.09_PT010H.grib2 2026-04-27 08:43 552K
20260427T06Z_MSC_RDPS_WindSpeed_IsbL-0001_RLatLon0.09_PT010H.grib2 2026-04-27 08:43 250K
20260427T06Z_MSC_RDPS_WindSpeed_IsbL-0005_RLatLon0.09_PT010H.grib2 2026-04-27 08:43 293K
20260427T06Z_MSC_RDPS_WindSpeed_IsbL-0010_RLatLon0.09_PT010H.grib2 2026-04-27 08:43 303K
20260427T06Z_MSC_RDPS_WindSpeed_IsbL-0020_RLatLon0.09_PT010H.grib2 2026-04-27 08:43 317K
20260427T06Z_MSC_RDPS_WindSpeed_IsbL-0030_RLatLon0.09_PT010H.grib2 2026-04-27 08:43 313K
20260427T06Z_MSC_RDPS_WindSpeed_IsbL-0050_RLatLon0.09_PT010H.grib2 2026-04-27 08:43 346K
20260427T06Z_MSC_RDPS_WindSpeed_IsbL-0100_RLatLon0.09_PT010H.grib2 2026-04-27 08:43 469K
20260427T06Z_MSC_RDPS_WindSpeed_IsbL-0150_RLatLon0.09_PT010H.grib2 2026-04-27 08:43 369K
20260427T06Z_MSC_RDPS_WindSpeed_IsbL-0175_RLatLon0.09_PT010H.grib2 2026-04-27 08:43 419K
20260427T06Z_MSC_RDPS_WindSpeed_IsbL-0200_RLatLon0.09_PT010H.grib2 2026-04-27 08:43 434K
20260427T06Z_MSC_RDPS_WindSpeed_IsbL-0225_RLatLon0.09_PT010H.grib2 2026-04-27 08:43 442K
20260427T06Z_MSC_RDPS_WindSpeed_IsbL-0250_RLatLon0.09_PT010H.grib2 2026-04-27 08:43 448K
20260427T06Z_MSC_RDPS_WindSpeed_IsbL-0275_RLatLon0.09_PT010H.grib2 2026-04-27 08:43 464K
20260427T06Z_MSC_RDPS_WindSpeed_IsbL-0300_RLatLon0.09_PT010H.grib2 2026-04-27 08:43 462K
20260427T06Z_MSC_RDPS_WindSpeed_IsbL-0350_RLatLon0.09_PT010H.grib2 2026-04-27 08:43 471K
20260427T06Z_MSC_RDPS_WindSpeed_IsbL-0400_RLatLon0.09_PT010H.grib2 2026-04-27 08:43 454K
20260427T06Z_MSC_RDPS_WindSpeed_IsbL-0450_RLatLon0.09_PT010H.grib2 2026-04-27 08:43 454K
20260427T06Z_MSC_RDPS_WindSpeed_IsbL-0500_RLatLon0.09_PT010H.grib2 2026-04-27 08:43 452K
20260427T06Z_MSC_RDPS_WindSpeed_IsbL-0550_RLatLon0.09_PT010H.grib2 2026-04-27 08:43 452K
20260427T06Z_MSC_RDPS_WindSpeed_IsbL-0600_RLatLon0.09_PT010H.grib2 2026-04-27 08:43 580K
20260427T06Z_MSC_RDPS_WindSpeed_IsbL-0650_RLatLon0.09_PT010H.grib2 2026-04-27 08:43 605K
20260427T06Z_MSC_RDPS_WindSpeed_IsbL-0700_RLatLon0.09_PT010H.grib2 2026-04-27 08:43 633K
20260427T06Z_MSC_RDPS_WindSpeed_IsbL-0750_RLatLon0.09_PT010H.grib2 2026-04-27 08:43 706K
20260427T06Z_MSC_RDPS_WindSpeed_IsbL-0800_RLatLon0.09_PT010H.grib2 2026-04-27 08:43 758K
20260427T06Z_MSC_RDPS_WindSpeed_IsbL-0850_RLatLon0.09_PT010H.grib2 2026-04-27 08:43 816K
20260427T06Z_MSC_RDPS_WindSpeed_IsbL-0875_RLatLon0.09_PT010H.grib2 2026-04-27 08:43 792K
20260427T06Z_MSC_RDPS_WindSpeed_IsbL-0900_RLatLon0.09_PT010H.grib2 2026-04-27 08:43 852K
20260427T06Z_MSC_RDPS_WindSpeed_IsbL-0925_RLatLon0.09_PT010H.grib2 2026-04-27 08:43 860K
20260427T06Z_MSC_RDPS_WindSpeed_IsbL-0950_RLatLon0.09_PT010H.grib2 2026-04-27 08:43 858K
20260427T06Z_MSC_RDPS_WindSpeed_IsbL-0970_RLatLon0.09_PT010H.grib2 2026-04-27 08:43 859K
20260427T06Z_MSC_RDPS_WindSpeed_IsbL-0985_RLatLon0.09_PT010H.grib2 2026-04-27 08:43 859K
20260427T06Z_MSC_RDPS_WindSpeed_IsbL-1000_RLatLon0.09_PT010H.grib2 2026-04-27 08:43 855K
20260427T06Z_MSC_RDPS_WindSpeed_IsbL-1015_RLatLon0.09_PT010H.grib2 2026-04-27 08:43 848K
20260427T06Z_MSC_RDPS_WindU_AGL-10m_RLatLon0.09_PT010H.grib2 2026-04-27 08:43 439K
20260427T06Z_MSC_RDPS_WindU_AGL-120m_RLatLon0.09_PT010H.grib2 2026-04-27 08:43 420K
20260427T06Z_MSC_RDPS_WindU_AGL-40m_RLatLon0.09_PT010H.grib2 2026-04-27 08:43 423K
20260427T06Z_MSC_RDPS_WindU_AGL-80m_RLatLon0.09_PT010H.grib2 2026-04-27 08:43 422K
20260427T06Z_MSC_RDPS_WindU_IsbL-0001_RLatLon0.09_PT010H.grib2 2026-04-27 08:43 266K
20260427T06Z_MSC_RDPS_WindU_IsbL-0005_RLatLon0.09_PT010H.grib2 2026-04-27 08:43 329K
20260427T06Z_MSC_RDPS_WindU_IsbL-0010_RLatLon0.09_PT010H.grib2 2026-04-27 08:43 293K
20260427T06Z_MSC_RDPS_WindU_IsbL-0020_RLatLon0.09_PT010H.grib2 2026-04-27 08:43 347K
20260427T06Z_MSC_RDPS_WindU_IsbL-0030_RLatLon0.09_PT010H.grib2 2026-04-27 08:43 346K
20260427T06Z_MSC_RDPS_WindU_IsbL-0050_RLatLon0.09_PT010H.grib2 2026-04-27 08:43 376K
20260427T06Z_MSC_RDPS_WindU_IsbL-0100_RLatLon0.09_PT010H.grib2 2026-04-27 08:43 427K
20260427T06Z_MSC_RDPS_WindU_IsbL-0150_RLatLon0.09_PT010H.grib2 2026-04-27 08:43 386K
20260427T06Z_MSC_RDPS_WindU_IsbL-0175_RLatLon0.09_PT010H.grib2 2026-04-27 08:43 412K
20260427T06Z_MSC_RDPS_WindU_IsbL-0200_RLatLon0.09_PT010H.grib2 2026-04-27 08:43 330K
20260427T06Z_MSC_RDPS_WindU_IsbL-0225_RLatLon0.09_PT010H.grib2 2026-04-27 08:43 336K
20260427T06Z_MSC_RDPS_WindU_IsbL-0250_RLatLon0.09_PT010H.grib2 2026-04-27 08:43 339K
20260427T06Z_MSC_RDPS_WindU_IsbL-0275_RLatLon0.09_PT010H.grib2 2026-04-27 08:43 352K
20260427T06Z_MSC_RDPS_WindU_IsbL-0300_RLatLon0.09_PT010H.grib2 2026-04-27 08:43 349K
20260427T06Z_MSC_RDPS_WindU_IsbL-0350_RLatLon0.09_PT010H.grib2 2026-04-27 08:43 356K
20260427T06Z_MSC_RDPS_WindU_IsbL-0400_RLatLon0.09_PT010H.grib2 2026-04-27 08:43 458K
20260427T06Z_MSC_RDPS_WindU_IsbL-0450_RLatLon0.09_PT010H.grib2 2026-04-27 08:43 460K
20260427T06Z_MSC_RDPS_WindU_IsbL-0500_RLatLon0.09_PT010H.grib2 2026-04-27 08:43 460K
20260427T06Z_MSC_RDPS_WindU_IsbL-0550_RLatLon0.09_PT010H.grib2 2026-04-27 08:43 461K
20260427T06Z_MSC_RDPS_WindU_IsbL-0600_RLatLon0.09_PT010H.grib2 2026-04-27 08:43 471K
20260427T06Z_MSC_RDPS_WindU_IsbL-0650_RLatLon0.09_PT010H.grib2 2026-04-27 08:43 491K
20260427T06Z_MSC_RDPS_WindU_IsbL-0700_RLatLon0.09_PT010H.grib2 2026-04-27 08:43 515K
20260427T06Z_MSC_RDPS_WindU_IsbL-0750_RLatLon0.09_PT010H.grib2 2026-04-27 08:43 541K
20260427T06Z_MSC_RDPS_WindU_IsbL-0800_RLatLon0.09_PT010H.grib2 2026-04-27 08:43 586K
20260427T06Z_MSC_RDPS_WindU_IsbL-0850_RLatLon0.09_PT010H.grib2 2026-04-27 08:43 634K
20260427T06Z_MSC_RDPS_WindU_IsbL-0875_RLatLon0.09_PT010H.grib2 2026-04-27 08:43 651K
20260427T06Z_MSC_RDPS_WindU_IsbL-0900_RLatLon0.09_PT010H.grib2 2026-04-27 08:43 653K
20260427T06Z_MSC_RDPS_WindU_IsbL-0925_RLatLon0.09_PT010H.grib2 2026-04-27 08:43 659K
20260427T06Z_MSC_RDPS_WindU_IsbL-0950_RLatLon0.09_PT010H.grib2 2026-04-27 08:43 654K
20260427T06Z_MSC_RDPS_WindU_IsbL-0970_RLatLon0.09_PT010H.grib2 2026-04-27 08:43 653K
20260427T06Z_MSC_RDPS_WindU_IsbL-0985_RLatLon0.09_PT010H.grib2 2026-04-27 08:43 654K
20260427T06Z_MSC_RDPS_WindU_IsbL-1000_RLatLon0.09_PT010H.grib2 2026-04-27 08:43 793K
20260427T06Z_MSC_RDPS_WindU_IsbL-1015_RLatLon0.09_PT010H.grib2 2026-04-27 08:43 789K
20260427T06Z_MSC_RDPS_WindV_AGL-10m_RLatLon0.09_PT010H.grib2 2026-04-27 08:43 437K
20260427T06Z_MSC_RDPS_WindV_AGL-120m_RLatLon0.09_PT010H.grib2 2026-04-27 08:43 419K
20260427T06Z_MSC_RDPS_WindV_AGL-40m_RLatLon0.09_PT010H.grib2 2026-04-27 08:43 540K
20260427T06Z_MSC_RDPS_WindV_AGL-80m_RLatLon0.09_PT010H.grib2 2026-04-27 08:43 420K
20260427T06Z_MSC_RDPS_WindV_IsbL-0001_RLatLon0.09_PT010H.grib2 2026-04-27 08:43 289K
20260427T06Z_MSC_RDPS_WindV_IsbL-0005_RLatLon0.09_PT010H.grib2 2026-04-27 08:43 328K
20260427T06Z_MSC_RDPS_WindV_IsbL-0010_RLatLon0.09_PT010H.grib2 2026-04-27 08:43 336K
20260427T06Z_MSC_RDPS_WindV_IsbL-0020_RLatLon0.09_PT010H.grib2 2026-04-27 08:43 309K
20260427T06Z_MSC_RDPS_WindV_IsbL-0030_RLatLon0.09_PT010H.grib2 2026-04-27 08:43 309K
20260427T06Z_MSC_RDPS_WindV_IsbL-0050_RLatLon0.09_PT010H.grib2 2026-04-27 08:43 340K
20260427T06Z_MSC_RDPS_WindV_IsbL-0100_RLatLon0.09_PT010H.grib2 2026-04-27 08:43 327K
20260427T06Z_MSC_RDPS_WindV_IsbL-0150_RLatLon0.09_PT010H.grib2 2026-04-27 08:43 385K
20260427T06Z_MSC_RDPS_WindV_IsbL-0175_RLatLon0.09_PT010H.grib2 2026-04-27 08:43 317K
20260427T06Z_MSC_RDPS_WindV_IsbL-0200_RLatLon0.09_PT010H.grib2 2026-04-27 08:43 330K
20260427T06Z_MSC_RDPS_WindV_IsbL-0225_RLatLon0.09_PT010H.grib2 2026-04-27 08:43 360K
20260427T06Z_MSC_RDPS_WindV_IsbL-0250_RLatLon0.09_PT010H.grib2 2026-04-27 08:43 363K
20260427T06Z_MSC_RDPS_WindV_IsbL-0275_RLatLon0.09_PT010H.grib2 2026-04-27 08:43 375K
20260427T06Z_MSC_RDPS_WindV_IsbL-0300_RLatLon0.09_PT010H.grib2 2026-04-27 08:43 371K
20260427T06Z_MSC_RDPS_WindV_IsbL-0350_RLatLon0.09_PT010H.grib2 2026-04-27 08:43 354K
20260427T06Z_MSC_RDPS_WindV_IsbL-0400_RLatLon0.09_PT010H.grib2 2026-04-27 08:43 354K
20260427T06Z_MSC_RDPS_WindV_IsbL-0450_RLatLon0.09_PT010H.grib2 2026-04-27 08:43 455K
20260427T06Z_MSC_RDPS_WindV_IsbL-0500_RLatLon0.09_PT010H.grib2 2026-04-27 08:43 454K
20260427T06Z_MSC_RDPS_WindV_IsbL-0550_RLatLon0.09_PT010H.grib2 2026-04-27 08:43 456K
20260427T06Z_MSC_RDPS_WindV_IsbL-0600_RLatLon0.09_PT010H.grib2 2026-04-27 08:43 465K
20260427T06Z_MSC_RDPS_WindV_IsbL-0650_RLatLon0.09_PT010H.grib2 2026-04-27 08:43 486K
20260427T06Z_MSC_RDPS_WindV_IsbL-0700_RLatLon0.09_PT010H.grib2 2026-04-27 08:43 510K
20260427T06Z_MSC_RDPS_WindV_IsbL-0750_RLatLon0.09_PT010H.grib2 2026-04-27 08:43 522K
20260427T06Z_MSC_RDPS_WindV_IsbL-0800_RLatLon0.09_PT010H.grib2 2026-04-27 08:43 568K
20260427T06Z_MSC_RDPS_WindV_IsbL-0850_RLatLon0.09_PT010H.grib2 2026-04-27 08:43 618K
20260427T06Z_MSC_RDPS_WindV_IsbL-0875_RLatLon0.09_PT010H.grib2 2026-04-27 08:43 638K
20260427T06Z_MSC_RDPS_WindV_IsbL-0900_RLatLon0.09_PT010H.grib2 2026-04-27 08:43 650K
20260427T06Z_MSC_RDPS_WindV_IsbL-0925_RLatLon0.09_PT010H.grib2 2026-04-27 08:43 656K
20260427T06Z_MSC_RDPS_WindV_IsbL-0950_RLatLon0.09_PT010H.grib2 2026-04-27 08:43 651K
20260427T06Z_MSC_RDPS_WindV_IsbL-0970_RLatLon0.09_PT010H.grib2 2026-04-27 08:43 651K
20260427T06Z_MSC_RDPS_WindV_IsbL-0985_RLatLon0.09_PT010H.grib2 2026-04-27 08:43 792K
20260427T06Z_MSC_RDPS_WindV_IsbL-1000_RLatLon0.09_PT010H.grib2 2026-04-27 08:43 792K
20260427T06Z_MSC_RDPS_WindV_IsbL-1015_RLatLon0.09_PT010H.grib2 2026-04-27 08:43 787K